Terminal Aerodrome Forecast
Issued by NWS

Home | Current Version | Previous Version | Text Only | Print | Product List | Glossary Off
Versions: 1 2 3 4 5 6 7 8 9 10 11 12 13 14 15 16 17 18 19 20 21 22 23 24 25 26 27 28 29 30 31 32

000
FTUS43 KLOT 220147 AAA
TAFDPA
TAF AMD
KDPA 220147Z 2202/2224 34015G25KT 2SM +TSRA BKN015 OVC040CB
     FM220230 32009KT 6SM -TSRA BKN040CB
     FM220400 21006KT P6SM SCT100 BKN250
     FM221300 26008KT P6SM BKN035
     FM222200 20008KT P6SM BKN040 PROB30 2222/2224 3SM TSRA
      OVC040CB=

USA.gov is the U.S. government's official web portal to all federal, state and local government web resources and services.